Tracking 29528 objects as of 14-Sep-2024
HD Live streaming from Space Station
objects crossing your sky now

COSMOS 1867 COOLANT

Track COSMOS 1867 COOLANT now!
10-day predictions


NORAD ID: 39661
Int'l Code: 1987-060Y
Perigee: 773.1 km
Apogee: 802.6 km
Inclination: 65.0 °
Period: 100.5 minutes
Semi major axis: 7158 km
RCS: Unknown
Launch date: July 10, 1987
Source: Commonwealth of Independent States (former USSR) (CIS)
Launch site: TYURATAM MISSILE AND SPACE COMPLEX (TTMTR)

Note: This is SATELLITE DEBRIS
Your satellite tracking list
Your tracking list is empty




NASA's NSSDC Master Catalog

Two Line Element Set (TLE):
1 39661U 87060Y   24258.03522286  .00003589  00000-0  13335-2 0  9997
2 39661  65.0113   9.1070 0020592 262.8117  97.0627 14.33300188545887
Source of the keplerian elements: AFSPC